Time,TemperatureF,DewpointF,PressureIn,WindDirection,WindDirectionDegrees,WindSpeedMPH,WindSpeedGustMPH,Humidity,HourlyPrecipIn,Conditions,Clouds,dailyrainin,SoftwareType,DateUTC
2013-02-08 00:02:00,37.0,37.0,29.85,NNW,337,9.0,13.0,99,0.00,,,0.11,,2013-02-08 05:02:00,
2013-02-08 00:11:00,37.0,37.0,29.85,NNW,337,9.0,13.0,99,0.00,,,0.11,,2013-02-08 05:11:00,
2013-02-08 00:22:00,36.0,36.0,29.85,NW,321,9.0,15.0,99,0.00,,,0.11,,2013-02-08 05:22:00,
2013-02-08 00:32:00,36.0,36.0,29.86,NW,326,5.0,14.0,99,0.00,,,0.11,,2013-02-08 05:32:00,
2013-02-08 00:42:00,36.0,36.0,29.86,NW,326,5.0,14.0,99,0.00,,,0.11,,2013-02-08 05:42:00,
2013-02-08 00:52:00,36.0,36.0,29.87,NNW,334,9.0,20.0,99,0.00,,,0.11,,2013-02-08 05:52:00,
2013-02-08 01:01:00,36.0,36.0,29.88,NW,326,10.0,17.0,99,0.00,,,0.11,,2013-02-08 06:01:00,
2013-02-08 01:11:00,36.0,36.0,29.88,NW,326,10.0,17.0,99,0.00,,,0.11,,2013-02-08 06:11:00,
2013-02-08 01:21:00,35.0,35.0,29.88,NNW,330,6.0,12.0,99,0.00,,,0.11,,2013-02-08 06:21:00,
2013-02-08 01:31:00,35.0,35.0,29.88,NNW,341,9.0,15.0,99,0.00,,,0.11,,2013-02-08 06:31:00,
2013-02-08 01:42:00,35.0,35.0,29.88,NNW,341,9.0,15.0,99,0.00,,,0.11,,2013-02-08 06:42:00,
2013-02-08 01:52:00,35.0,35.0,29.89,NNW,334,8.0,16.0,99,0.00,,,0.11,,2013-02-08 06:52:00,
2013-02-08 02:01:00,35.0,35.0,29.89,NW,311,12.0,17.0,99,0.00,,,0.11,,2013-02-08 07:01:00,
2013-02-08 02:11:00,35.0,35.0,29.90,NNW,334,13.0,18.0,99,0.00,,,0.11,,2013-02-08 07:11:00,
2013-02-08 02:21:00,35.0,35.0,29.90,NNW,334,13.0,18.0,99,0.00,,,0.11,,2013-02-08 07:21:00,
2013-02-08 02:31:00,35.0,35.0,29.91,NNW,336,7.0,12.0,99,0.00,,,0.11,,2013-02-08 07:31:00,
2013-02-08 02:42:00,35.0,35.0,29.91,North,351,13.0,17.0,99,0.00,,,0.11,,2013-02-08 07:42:00,
2013-02-08 02:52:00,35.0,35.0,29.91,North,351,13.0,17.0,99,0.00,,,0.11,,2013-02-08 07:52:00,
2013-02-08 03:01:00,35.0,35.0,29.91,North,355,13.0,16.0,99,0.00,,,0.11,,2013-02-08 08:01:00,
2013-02-08 03:11:00,35.0,35.0,29.92,North,354,8.0,9.0,99,0.00,,,0.11,,2013-02-08 08:11:00,
2013-02-08 03:21:00,35.0,35.0,29.92,North,354,8.0,9.0,99,0.00,,,0.11,,2013-02-08 08:21:00,
2013-02-08 03:32:00,35.0,35.0,29.93,NNW,343,7.0,13.0,99,0.00,,,0.11,,2013-02-08 08:32:00,
2013-02-08 03:41:00,35.0,35.0,29.93,NNW,343,7.0,13.0,99,0.00,,,0.11,,2013-02-08 08:41:00,
2013-02-08 03:52:00,35.0,35.0,29.93,NNW,333,12.0,15.0,99,0.00,,,0.11,,2013-02-08 08:52:00,
2013-02-08 04:03:00,35.0,35.0,29.93,NNW,332,9.0,14.0,99,0.00,,,0.11,,2013-02-08 09:03:00,
2013-02-08 04:11:00,35.0,35.0,29.93,NNW,332,9.0,14.0,99,0.00,,,0.11,,2013-02-08 09:11:00,
2013-02-08 04:21:00,35.0,35.0,29.95,NNW,329,7.0,14.0,99,0.00,,,0.11,,2013-02-08 09:21:00,
2013-02-08 04:31:00,35.0,35.0,29.96,NNW,343,8.0,14.0,99,0.00,,,0.11,,2013-02-08 09:31:00,
2013-02-08 04:42:00,35.0,35.0,29.96,NNW,343,8.0,14.0,99,0.00,,,0.11,,2013-02-08 09:42:00,
2013-02-08 04:52:00,35.0,35.0,29.96,North,9,9.0,16.0,99,0.00,,,0.11,,2013-02-08 09:52:00,
2013-02-08 05:01:00,35.0,35.0,29.97,North,4,8.0,10.0,99,0.00,,,0.11,,2013-02-08 10:01:00,
2013-02-08 05:11:00,35.0,35.0,29.97,North,4,8.0,10.0,99,0.00,,,0.11,,2013-02-08 10:11:00,
2013-02-08 05:22:00,35.0,35.0,29.98,North,1,12.0,18.0,99,0.00,,,0.11,,2013-02-08 10:22:00,
2013-02-08 05:31:00,34.0,34.0,29.99,North,349,12.0,16.0,99,0.00,,,0.11,,2013-02-08 10:31:00,
2013-02-08 05:41:00,34.0,34.0,29.99,North,349,12.0,16.0,99,0.00,,,0.11,,2013-02-08 10:41:00,
2013-02-08 05:52:00,34.0,34.0,30.00,North,350,9.0,14.0,99,0.00,,,0.11,,2013-02-08 10:52:00,
2013-02-08 06:01:00,34.0,34.0,30.00,North,352,9.0,15.0,99,0.00,,,0.11,,2013-02-08 11:01:00,
2013-02-08 06:11:00,34.0,34.0,30.00,North,352,9.0,15.0,99,0.00,,,0.11,,2013-02-08 11:11:00,
2013-02-08 06:21:00,34.0,34.0,30.01,North,354,8.0,10.0,99,0.00,,,0.11,,2013-02-08 11:21:00,
2013-02-08 06:32:00,34.0,34.0,30.01,NNW,342,10.0,20.0,99,0.00,,,0.11,,2013-02-08 11:32:00,
2013-02-08 06:42:00,34.0,34.0,30.01,NNW,342,10.0,20.0,99,0.00,,,0.11,,2013-02-08 11:42:00,
2013-02-08 06:52:00,34.0,34.0,30.02,NNW,347,9.0,15.0,99,0.00,,,0.11,,2013-02-08 11:52:00,
2013-02-08 07:01:00,34.0,34.0,30.03,North,357,9.0,12.0,99,0.00,,,0.11,,2013-02-08 12:01:00,
2013-02-08 07:11:00,34.0,34.0,30.03,North,357,9.0,12.0,99,0.00,,,0.11,,2013-02-08 12:11:00,
2013-02-08 07:22:00,33.0,33.0,30.04,NNW,345,9.0,14.0,99,0.00,,,0.11,,2013-02-08 12:22:00,
2013-02-08 07:32:00,33.0,32.0,30.05,North,356,8.0,9.0,98,0.00,,,0.11,,2013-02-08 12:32:00,
2013-02-08 07:42:00,33.0,32.0,30.05,North,356,8.0,9.0,98,0.00,,,0.11,,2013-02-08 12:42:00,
2013-02-08 07:52:00,33.0,33.0,30.06,North,0,12.0,21.0,99,0.00,,,0.11,,2013-02-08 12:52:00,
2013-02-08 08:01:00,32.0,32.0,30.07,North,351,8.0,10.0,99,0.00,,,0.11,,2013-02-08 13:01:00,
2013-02-08 08:11:00,32.0,32.0,30.07,North,351,8.0,10.0,99,0.00,,,0.11,,2013-02-08 13:11:00,
2013-02-08 08:22:00,32.0,32.0,30.09,NNW,341,12.0,16.0,99,0.00,,,0.11,,2013-02-08 13:22:00,
2013-02-08 08:32:00,32.0,32.0,30.09,North,357,7.0,13.0,99,0.00,,,0.11,,2013-02-08 13:32:00,
2013-02-08 08:42:00,32.0,32.0,30.09,North,357,7.0,13.0,99,0.00,,,0.11,,2013-02-08 13:42:00,
2013-02-08 08:52:00,32.0,32.0,30.11,North,351,8.0,9.0,99,0.00,,,0.11,,2013-02-08 13:52:00,
2013-02-08 09:02:00,32.0,32.0,30.11,NNW,344,8.0,9.0,98,0.00,,,0.11,,2013-02-08 14:02:00,
2013-02-08 09:11:00,32.0,32.0,30.11,NNW,344,8.0,9.0,98,0.00,,,0.11,,2013-02-08 14:11:00,
2013-02-08 09:21:00,32.0,32.0,30.13,NNW,341,13.0,20.0,98,0.00,,,0.11,,2013-02-08 14:21:00,
2013-02-08 09:32:00,32.0,32.0,30.13,NNW,340,13.0,16.0,98,0.00,,,0.11,,2013-02-08 14:32:00,
2013-02-08 09:42:00,32.0,32.0,30.13,NNW,340,13.0,16.0,98,0.00,,,0.11,,2013-02-08 14:42:00,
2013-02-08 09:52:00,32.0,32.0,30.14,NNW,331,7.0,15.0,99,0.00,,,0.11,,2013-02-08 14:52:00,
2013-02-08 10:02:00,32.0,32.0,30.15,NNW,335,14.0,17.0,99,0.00,,,0.11,,2013-02-08 15:02:00,
2013-02-08 10:11:00,32.0,32.0,30.15,NNW,335,14.0,17.0,99,0.00,,,0.11,,2013-02-08 15:11:00,
2013-02-08 10:22:00,31.0,31.0,30.16,NW,326,10.0,17.0,99,0.00,,,0.11,,2013-02-08 15:22:00,
2013-02-08 10:32:00,31.0,31.0,30.16,NNW,339,8.0,14.0,99,0.00,,,0.11,,2013-02-08 15:32:00,
2013-02-08 10:42:00,31.0,31.0,30.16,NNW,339,8.0,14.0,99,0.00,,,0.11,,2013-02-08 15:42:00,
2013-02-08 10:52:00,31.0,31.0,30.17,NNW,337,8.0,9.0,99,0.00,,,0.11,,2013-02-08 15:52:00,
2013-02-08 11:01:00,31.0,31.0,30.17,NW,322,9.0,14.0,99,0.00,,,0.11,,2013-02-08 16:01:00,
2013-02-08 11:11:00,31.0,31.0,30.17,NW,322,9.0,14.0,99,0.00,,,0.11,,2013-02-08 16:11:00,
2013-02-08 11:21:00,31.0,31.0,30.19,NNW,333,8.0,13.0,99,0.00,,,0.11,,2013-02-08 16:21:00,
2013-02-08 11:32:00,31.0,31.0,30.20,North,351,8.0,15.0,99,0.00,,,0.11,,2013-02-08 16:32:00,
2013-02-08 11:42:00,31.0,31.0,30.20,North,351,8.0,15.0,99,0.00,,,0.11,,2013-02-08 16:42:00,
2013-02-08 11:52:00,32.0,32.0,30.21,NNW,342,9.0,13.0,99,0.00,,,0.11,,2013-02-08 16:52:00,
2013-02-08 12:03:00,32.0,32.0,30.21,NNW,346,10.0,13.0,99,0.00,,,0.11,,2013-02-08 17:03:00,
2013-02-08 12:12:00,32.0,32.0,30.21,NNW,346,10.0,13.0,99,0.00,,,0.11,,2013-02-08 17:12:00,
2013-02-08 12:22:00,32.0,32.0,30.21,NNW,333,8.0,16.0,99,0.00,,,0.11,,2013-02-08 17:22:00,
2013-02-08 12:32:00,33.0,33.0,30.21,NNW,339,13.0,17.0,99,0.00,,,0.11,,2013-02-08 17:32:00,
2013-02-08 12:42:00,33.0,33.0,30.21,NNW,339,13.0,17.0,99,0.00,,,0.11,,2013-02-08 17:42:00,
2013-02-08 12:53:00,33.0,32.0,30.21,NNW,334,8.0,17.0,98,0.00,,,0.11,,2013-02-08 17:53:00,
2013-02-08 13:02:00,33.0,32.0,30.21,North,354,7.0,13.0,98,0.00,,,0.11,,2013-02-08 18:02:00,
2013-02-08 13:12:00,33.0,32.0,30.21,North,354,7.0,13.0,98,0.00,,,0.11,,2013-02-08 18:12:00,
2013-02-08 13:24:00,34.0,33.0,30.21,North,2,10.0,16.0,97,0.00,,,0.11,,2013-02-08 18:24:00,
2013-02-08 13:34:00,35.0,34.0,30.21,NNW,345,9.0,12.0,97,0.00,,,0.11,,2013-02-08 18:34:00,
2013-02-08 13:43:00,35.0,34.0,30.21,NNW,345,9.0,12.0,97,0.00,,,0.11,,2013-02-08 18:43:00,
2013-02-08 13:52:00,35.0,34.0,30.21,North,350,9.0,14.0,95,0.00,,,0.11,,2013-02-08 18:52:00,
2013-02-08 14:02:00,35.0,34.0,30.21,North,357,8.0,12.0,96,0.00,,,0.11,,2013-02-08 19:02:00,
2013-02-08 14:11:00,35.0,34.0,30.21,North,357,8.0,12.0,96,0.00,,,0.11,,2013-02-08 19:11:00,
2013-02-08 14:22:00,35.0,34.0,30.22,North,3,9.0,15.0,95,0.00,,,0.11,,2013-02-08 19:22:00,
2013-02-08 14:32:00,35.0,34.0,30.22,North,357,8.0,12.0,95,0.00,,,0.11,,2013-02-08 19:32:00,
2013-02-08 14:42:00,35.0,34.0,30.22,North,357,8.0,12.0,95,0.00,,,0.11,,2013-02-08 19:42:00,
2013-02-08 14:52:00,35.0,34.0,30.22,North,358,6.0,10.0,95,0.00,,,0.11,,2013-02-08 19:52:00,
2013-02-08 15:02:00,35.0,34.0,30.23,North,354,8.0,9.0,95,0.00,,,0.11,,2013-02-08 20:02:00,
2013-02-08 15:11:00,35.0,34.0,30.23,North,354,8.0,9.0,95,0.00,,,0.11,,2013-02-08 20:11:00,
2013-02-08 15:21:00,35.0,33.0,30.23,North,5,6.0,9.0,94,0.00,,,0.11,,2013-02-08 20:21:00,
2013-02-08 15:32:00,35.0,33.0,30.24,North,2,12.0,20.0,94,0.00,,,0.11,,2013-02-08 20:32:00,
2013-02-08 15:41:00,35.0,33.0,30.24,North,2,12.0,20.0,94,0.00,,,0.11,,2013-02-08 20:41:00,
2013-02-08 15:52:00,35.0,33.0,30.24,North,354,7.0,13.0,94,0.00,,,0.11,,2013-02-08 20:52:00,
2013-02-08 16:02:00,35.0,33.0,30.24,NNW,335,9.0,18.0,94,0.00,,,0.11,,2013-02-08 21:02:00,
2013-02-08 16:11:00,35.0,33.0,30.24,NNW,335,9.0,18.0,94,0.00,,,0.11,,2013-02-08 21:11:00,
2013-02-08 16:22:00,35.0,33.0,30.25,North,355,7.0,14.0,94,0.00,,,0.11,,2013-02-08 21:22:00,
2013-02-08 16:32:00,35.0,33.0,30.26,NNE,14,8.0,10.0,94,0.00,,,0.11,,2013-02-08 21:32:00,
2013-02-08 16:42:00,35.0,33.0,30.26,NNE,14,8.0,10.0,94,0.00,,,0.11,,2013-02-08 21:42:00,
2013-02-08 16:52:00,35.0,33.0,30.27,North,4,7.0,12.0,94,0.00,,,0.11,,2013-02-08 21:52:00,
2013-02-08 17:01:00,34.0,33.0,30.27,NNW,347,5.0,7.0,95,0.00,,,0.11,,2013-02-08 22:01:00,
2013-02-08 17:11:00,34.0,33.0,30.27,NNW,347,5.0,7.0,95,0.00,,,0.11,,2013-02-08 22:11:00,
2013-02-08 17:21:00,34.0,33.0,30.27,NNE,15,7.0,8.0,95,0.00,,,0.11,,2013-02-08 22:21:00,
2013-02-08 17:32:00,33.0,32.0,30.27,NNE,12,8.0,13.0,96,0.00,,,0.11,,2013-02-08 22:32:00,
2013-02-08 17:42:00,33.0,32.0,30.27,NNE,12,8.0,13.0,96,0.00,,,0.11,,2013-02-08 22:42:00,
2013-02-08 17:52:00,33.0,32.0,30.28,North,5,8.0,10.0,96,0.00,,,0.11,,2013-02-08 22:52:00,
2013-02-08 18:01:00,33.0,32.0,30.29,North,2,8.0,10.0,96,0.00,,,0.11,,2013-02-08 23:01:00,
2013-02-08 18:11:00,33.0,32.0,30.29,North,2,8.0,10.0,96,0.00,,,0.11,,2013-02-08 23:11:00,
2013-02-08 18:21:00,33.0,32.0,30.29,NNE,13,7.0,12.0,97,0.00,,,0.11,,2013-02-08 23:21:00,
2013-02-08 18:31:00,32.0,31.0,30.30,North,357,3.0,8.0,97,0.00,,,0.11,,2013-02-08 23:31:00,
2013-02-08 18:41:00,32.0,31.0,30.30,North,357,3.0,8.0,97,0.00,,,0.11,,2013-02-08 23:41:00,
2013-02-08 18:52:00,32.0,32.0,30.32,North,6,3.0,8.0,98,0.00,,,0.11,,2013-02-08 23:52:00,
2013-02-08 19:02:00,32.0,32.0,30.32,North,355,8.0,12.0,98,0.00,,,0.11,,2013-02-09 00:02:00,
2013-02-08 19:11:00,32.0,32.0,30.32,North,355,8.0,12.0,98,0.00,,,0.11,,2013-02-09 00:11:00,
2013-02-08 19:21:00,32.0,32.0,30.33,NNW,330,3.0,12.0,98,0.00,,,0.11,,2013-02-09 00:21:00,
2013-02-08 19:32:00,32.0,32.0,30.33,NNW,345,6.0,8.0,98,0.00,,,0.11,,2013-02-09 00:32:00,
2013-02-08 19:42:00,32.0,32.0,30.33,NNW,345,6.0,8.0,98,0.00,,,0.11,,2013-02-09 00:42:00,
2013-02-08 19:52:00,32.0,32.0,30.33,North,350,1.0,0.0,99,0.00,,,0.11,,2013-02-09 00:52:00,
2013-02-08 20:01:00,32.0,32.0,30.33,NNE,13,7.0,13.0,99,0.00,,,0.11,,2013-02-09 01:01:00,
2013-02-08 20:11:00,32.0,32.0,30.33,NNE,13,7.0,13.0,99,0.00,,,0.11,,2013-02-09 01:11:00,
2013-02-08 20:21:00,32.0,32.0,30.34,NNE,14,6.0,9.0,99,0.00,,,0.10,,2013-02-09 01:21:00,
2013-02-08 20:32:00,32.0,32.0,30.35,North,1,5.0,6.0,99,0.00,,,0.09,,2013-02-09 01:32:00,
2013-02-08 20:41:00,32.0,32.0,30.35,North,1,5.0,6.0,99,0.00,,,0.09,,2013-02-09 01:41:00,
2013-02-08 20:52:00,32.0,32.0,30.35,North,7,0.0,6.0,99,0.00,,,0.08,,2013-02-09 01:52:00,
2013-02-08 21:01:00,32.0,32.0,30.34,North,356,5.0,6.0,98,0.00,,,0.07,,2013-02-09 02:01:00,
2013-02-08 21:11:00,31.0,31.0,30.35,NNE,13,1.0,2.0,98,0.00,,,0.04,,2013-02-09 02:11:00,
2013-02-08 21:21:00,31.0,31.0,30.35,NNE,13,1.0,2.0,98,0.00,,,0.04,,2013-02-09 02:21:00,
2013-02-08 21:32:00,31.0,31.0,30.35,North,5,5.0,7.0,98,0.00,,,0.03,,2013-02-09 02:32:00,
2013-02-08 21:41:00,31.0,31.0,30.35,North,5,5.0,7.0,98,0.00,,,0.03,,2013-02-09 02:41:00,
2013-02-08 21:52:00,31.0,31.0,30.35,North,354,5.0,6.0,98,0.00,,,0.02,,2013-02-09 02:52:00,
2013-02-08 22:01:00,31.0,31.0,30.35,NNE,12,3.0,6.0,98,0.00,,,0.01,,2013-02-09 03:01:00,
2013-02-08 22:11:00,31.0,31.0,30.35,NNE,12,3.0,6.0,98,0.00,,,0.01,,2013-02-09 03:11:00,
2013-02-08 22:21:00,31.0,30.0,30.35,North,0,5.0,7.0,97,0.00,,,0.01,,2013-02-09 03:21:00,
2013-02-08 22:32:00,31.0,30.0,30.35,NNE,25,0.0,0.0,97,0.00,,,0.01,,2013-02-09 03:32:00,
2013-02-08 22:42:00,31.0,30.0,30.35,NNE,25,0.0,0.0,97,0.00,,,0.01,,2013-02-09 03:42:00,
2013-02-08 22:52:00,31.0,31.0,30.35,North,3,1.0,0.0,98,0.00,,,0.00,,2013-02-09 03:52:00,
2013-02-08 23:02:00,31.0,31.0,30.36,North,6,0.0,0.0,98,0.00,,,0.00,,2013-02-09 04:02:00,
2013-02-08 23:11:00,31.0,31.0,30.36,NNW,346,3.0,6.0,98,0.00,,,0.00,,2013-02-09 04:11:00,
2013-02-08 23:23:00,31.0,31.0,30.36,NNW,346,3.0,6.0,98,0.00,,,0.00,,2013-02-09 04:23:00,
2013-02-08 23:32:00,31.0,31.0,30.36,North,353,0.0,0.0,98,0.00,,,0.00,,2013-02-09 04:32:00,
2013-02-08 23:42:00,31.0,31.0,30.36,North,353,0.0,0.0,98,0.00,,,0.00,,2013-02-09 04:42:00,
2013-02-08 23:52:00,31.0,31.0,30.37,NNW,344,0.0,0.0,98,0.00,,,0.00,,2013-02-09 04:52:00,